When you browse on this site, cookies collect data to enhance your experience and personalize the content and advertising you see.
Visit our Privacy Policy to learn more. By continuing to use the site, you agree to this use of cookies and data.
  • In United Kingdom
  • List of Countries
  • For 7 days
  • Water Temperature
  • Weather Map
  • Weather Widgets
  • user-avatar
    Login

    Hourly Weather Lozenec

    Today, 29 February, Saturday

    Time Temperature Precipitation Wind Pressure Humidity
    00:00 +5°C° 0.8 mm 4 mps 753 mmHg 87%
    01:00 +5°C° 0.8 mm 5 mps 753 mmHg 88%
    02:00 +4°C° 0.8 mm 7 mps 753 mmHg 90%
    03:00 +3°C° 1.5 mm 7 mps 753 mmHg 91%
    04:00 +2°C° 1.5 mm 8 mps 753 mmHg 92%
    05:00 +2°C° 1.5 mm 9 mps 754 mmHg 94%
    06:00 +2°C° 0.5 mm 9 mps 754 mmHg 93%
    07:00 +2°C° 0.5 mm 9 mps 755 mmHg 92%
    08:00 +2°C° 0.5 mm 9 mps 756 mmHg 91%
    09:00 +3°C° 0.2 mm 9 mps 757 mmHg 88%
    10:00 +3°C° 0.2 mm 9 mps 757 mmHg 84%
    11:00 +5°C° 0.2 mm 8 mps 758 mmHg 81%
    12:00 +5°C° 0 mm 8 mps 759 mmHg 78%
    13:00 +6°C° 0 mm 7 mps 759 mmHg 75%
    14:00 +7°C° 0 mm 6 mps 759 mmHg 72%
    15:00 +7°C° 0 mm 5 mps 760 mmHg 74%
    16:00 +6°C° 0 mm 4 mps 760 mmHg 75%
    17:00 +7°C° 0 mm 3 mps 761 mmHg 76%
    18:00 +5°C° 0 mm 3 mps 761 mmHg 80%
    19:00 +5°C° 0 mm 2 mps 762 mmHg 83%
    20:00 +6°C° 0 mm 1 mps 762 mmHg 86%
    21:00 +5°C° 0 mm 1 mps 762 mmHg 86%
    22:00 +5°C° 0 mm 1 mps 763 mmHg 87%
    23:00 +5°C° 0 mm 1 mps 763 mmHg 87%

    Tomorrow, 1 March, Sunday

    Time Temperature Precipitation Wind Pressure Humidity
    00:00 +5°C° 0 mm 1 mps 763 mmHg 87%
    01:00 +5°C° 0 mm 1 mps 763 mmHg 87%
    02:00 +4°C° 0 mm 1 mps 763 mmHg 87%
    03:00 +4°C° 0 mm 1 mps 762 mmHg 86%
    04:00 +3°C° 0 mm 2 mps 762 mmHg 86%
    05:00 +3°C° 0 mm 2 mps 762 mmHg 86%
    06:00 +3°C° 0 mm 2 mps 762 mmHg 83%
    07:00 +4°C° 0 mm 2 mps 762 mmHg 80%
    08:00 +5°C° 0 mm 2 mps 762 mmHg 77%
    09:00 +6°C° 0 mm 2 mps 762 mmHg 70%
    10:00 +8°C° 0 mm 3 mps 762 mmHg 63%
    11:00 +9°C° 0 mm 3 mps 762 mmHg 56%
    12:00 +10°C° 0 mm 4 mps 762 mmHg 55%
    13:00 +11°C° 0 mm 4 mps 761 mmHg 54%
    14:00 +10°C° 0 mm 5 mps 761 mmHg 53%
    15:00 +10°C° 0 mm 5 mps 760 mmHg 58%
    16:00 +9°C° 0 mm 5 mps 760 mmHg 62%
    17:00 +9°C° 0 mm 5 mps 760 mmHg 67%
    18:00 +8°C° 0 mm 5 mps 760 mmHg 72%
    19:00 +7°C° 0 mm 4 mps 760 mmHg 77%
    20:00 +6°C° 0 mm 4 mps 760 mmHg 82%
    21:00 +5°C° 0 mm 4 mps 760 mmHg 81%
    22:00 +5°C° 0 mm 4 mps 760 mmHg 79%
    23:00 +4°C° 0 mm 4 mps 760 mmHg 78%

    Day after tomorrow, 2 March, Monday

    Time Temperature Precipitation Wind Pressure Humidity
    00:00 +4°C° 0 mm 4 mps 759 mmHg 77%
    01:00 +4°C° 0 mm 3 mps 759 mmHg 76%
    02:00 +4°C° 0 mm 3 mps 758 mmHg 76%
    03:00 +4°C° 0 mm 3 mps 758 mmHg 77%
    04:00 +4°C° 0 mm 3 mps 758 mmHg 78%
    05:00 +4°C° 0 mm 3 mps 757 mmHg 79%
    06:00 +5°C° 0 mm 4 mps 757 mmHg 78%
    07:00 +5°C° 0 mm 4 mps 757 mmHg 77%
    08:00 +6°C° 0 mm 4 mps 757 mmHg 76%
    09:00 +8°C° 0 mm 5 mps 757 mmHg 73%
    10:00 +10°C° 0 mm 6 mps 756 mmHg 70%
    11:00 +13°C° 0 mm 6 mps 756 mmHg 67%
    12:00 +14°C° 0 mm 6 mps 756 mmHg 65%
    13:00 +15°C° 0 mm 7 mps 755 mmHg 64%
    14:00 +16°C° 0 mm 7 mps 755 mmHg 63%
    15:00 +16°C° 0 mm 6 mps 755 mmHg 66%
    16:00 +15°C° 0 mm 6 mps 754 mmHg 68%
    17:00 +14°C° 0 mm 6 mps 754 mmHg 71%
    18:00 +14°C° 0 mm 6 mps 755 mmHg 73%
    19:00 +13°C° 0 mm 5 mps 755 mmHg 76%
    20:00 +12°C° 0 mm 5 mps 756 mmHg 79%
    21:00 +12°C° 0 mm 5 mps 756 mmHg 79%
    22:00 +12°C° 0 mm 5 mps 756 mmHg 80%
    23:00 +12°C° 0 mm 4 mps 756 mmHg 80%

    3 March, Tuesday

    Time Temperature Precipitation Wind Pressure Humidity
    00:00 +12°C° 0 mm 4 mps 756 mmHg 82%
    01:00 +12°C° 0 mm 4 mps 756 mmHg 84%
    02:00 +12°C° 0 mm 4 mps 756 mmHg 85%
    03:00 +12°C° 0 mm 4 mps 756 mmHg 85%
    04:00 +12°C° 0 mm 5 mps 756 mmHg 85%
    05:00 +12°C° 0 mm 5 mps 755 mmHg 84%
    06:00 +12°C° 0 mm 5 mps 755 mmHg 81%
    07:00 +11°C° 0 mm 6 mps 755 mmHg 78%
    08:00 +13°C° 0 mm 6 mps 756 mmHg 75%
    09:00 +14°C° 0 mm 6 mps 755 mmHg 71%
    10:00 +15°C° 0 mm 7 mps 755 mmHg 66%
    11:00 +16°C° 0 mm 7 mps 755 mmHg 62%
    12:00 +16°C° 0 mm 7 mps 755 mmHg 58%
    13:00 +17°C° 0 mm 7 mps 754 mmHg 55%
    14:00 +18°C° 0 mm 7 mps 754 mmHg 52%
    15:00 +17°C° 0 mm 6 mps 754 mmHg 54%
    16:00 +17°C° 0 mm 6 mps 753 mmHg 56%
    17:00 +16°C° 0 mm 6 mps 753 mmHg 58%
    18:00 +16°C° 0 mm 6 mps 753 mmHg 61%
    19:00 +15°C° 0 mm 6 mps 753 mmHg 64%
    20:00 +14°C° 0 mm 5 mps 753 mmHg 67%
    21:00 +14°C° 0 mm 5 mps 753 mmHg 67%
    22:00 +13°C° 0 mm 5 mps 753 mmHg 68%
    23:00 +13°C° 0 mm 5 mps 753 mmHg 69%

    4 March, Wednesday

    Time Temperature Precipitation Wind Pressure Humidity
    00:00 +13°C° 0 mm 5 mps 752 mmHg 67%
    01:00 +12°C° 0 mm 5 mps 752 mmHg 65%
    02:00 +12°C° 0 mm 5 mps 752 mmHg 63%
    03:00 +12°C° 0 mm 5 mps 751 mmHg 61%
    04:00 +11°C° 0 mm 6 mps 751 mmHg 59%
    05:00 +13°C° 0 mm 6 mps 750 mmHg 57%
    06:00 +13°C° 0 mm 6 mps 750 mmHg 57%
    07:00 +14°C° 0 mm 7 mps 750 mmHg 58%
    08:00 +14°C° 0 mm 7 mps 751 mmHg 59%
    09:00 +13°C° 0.1 mm 8 mps 751 mmHg 61%
    10:00 +13°C° 0.1 mm 8 mps 750 mmHg 63%
    11:00 +13°C° 0.1 mm 9 mps 750 mmHg 66%
    12:00 +15°C° 0 mm 9 mps 750 mmHg 61%
    13:00 +16°C° 0 mm 9 mps 750 mmHg 57%
    14:00 +17°C° 0 mm 9 mps 750 mmHg 52%
    15:00 +16°C° 0 mm 8 mps 750 mmHg 54%
    16:00 +15°C° 0 mm 8 mps 750 mmHg 57%
    17:00 +15°C° 0 mm 7 mps 749 mmHg 59%
    18:00 +13°C° 0 mm 6 mps 750 mmHg 63%
    19:00 +11°C° 0 mm 6 mps 750 mmHg 67%
    20:00 +10°C° 0 mm 5 mps 751 mmHg 70%
    21:00 +10°C° 0 mm 5 mps 751 mmHg 71%
    22:00 +10°C° 0 mm 6 mps 751 mmHg 72%
    23:00 +9°C° 0 mm 6 mps 751 mmHg 73%

    5 March, Thursday

    Time Temperature Precipitation Wind Pressure Humidity
    00:00 +9°C° 0 mm 5 mps 752 mmHg 74%
    01:00 +9°C° 0 mm 5 mps 752 mmHg 75%
    02:00 +8°C° 0 mm 4 mps 752 mmHg 75%
    03:00 +9°C° 0 mm 3 mps 752 mmHg 79%
    04:00 +8°C° 0 mm 2 mps 752 mmHg 82%
    05:00 +9°C° 0 mm 1 mps 752 mmHg 86%
    06:00 +9°C° 0.1 mm 1 mps 752 mmHg 85%
    07:00 +9°C° 0.1 mm 1 mps 752 mmHg 84%
    08:00 +10°C° 0.1 mm 1 mps 753 mmHg 83%
    09:00 +10°C° 0.3 mm 2 mps 753 mmHg 79%
    10:00 +12°C° 0.3 mm 2 mps 753 mmHg 74%
    11:00 +12°C° 0.3 mm 3 mps 753 mmHg 70%
    12:00 +11°C° 0.4 mm 3 mps 753 mmHg 72%
    13:00 +11°C° 0.4 mm 4 mps 752 mmHg 74%
    14:00 +10°C° 0.4 mm 4 mps 752 mmHg 76%
    15:00 +8°C° 0.1 mm 4 mps 752 mmHg 76%
    16:00 +9°C° 0.1 mm 3 mps 752 mmHg 76%
    17:00 +9°C° 0.1 mm 3 mps 752 mmHg 77%
    18:00 +8°C° 0 mm 2 mps 753 mmHg 77%
    19:00 +8°C° 0 mm 2 mps 753 mmHg 78%
    20:00 +9°C° 0 mm 1 mps 754 mmHg 78%
    21:00 +7°C° 0 mm 2 mps 754 mmHg 77%
    22:00 +7°C° 0 mm 2 mps 754 mmHg 77%
    23:00 +7°C° 0 mm 2 mps 755 mmHg 76%
    Show more